This demonstration page uses our WeatherBlox Daily Observations layout. Learn more.

39.29038, -76.61219

Hourly Observations for July 1, 2017

Temp ( °F °C ) Dew Point ( °F °C ) Humidity (%) Winds ( mph kmh ) Pressure ( in mb ) Visibility ( mi km ) Precip ( " mm )
12:54 am 00:54 undefined 83 28.3 69 20.6 63 63 undefined N/A 29.94 1014 N/A 0 0
1:54 am 01:54 undefined 82 27.8 70 21.1 67 67 undefined N/A 29.94 1014 N/A 0 0
2:54 am 02:54 undefined 81 27.2 70 21.1 69 69 undefined N/A 29.91 1013 N/A 0 0
3:54 am 03:54 undefined 80 26.7 69 20.6 69 69 undefined N/A 29.91 1013 N/A 0 0
4:54 am 04:54 undefined 79 26.1 69 20.6 72 72 undefined N/A 29.91 1013 N/A 0 0
5:54 am 05:54 undefined 79 26.1 70 21.1 74 74 undefined N/A 29.91 1013 N/A 0 0
6:54 am 06:54 undefined 79 26.1 71 21.7 77 77 undefined N/A 29.91 1013 N/A 0 0
7:54 am 07:54 undefined 79 26.1 72 22.2 79 79 undefined N/A 29.94 1014 N/A 0 0
8:54 am 08:54 undefined 81 27.2 72 22.2 74 74 undefined N/A 29.91 1013 N/A 0 0
9:54 am 09:54 undefined 83 28.3 72 22.2 70 70 undefined N/A 29.91 1013 N/A 0 0
10:54 am 10:54 undefined 86 30 72 22.2 63 63 undefined N/A 29.91 1013 N/A 0 0
11:54 am 11:54 undefined 89 31.7 73 22.8 59 59 undefined N/A 29.91 1013 N/A 0 0
12:54 pm 12:54 undefined 90 32.2 72 22.2 56 56 undefined N/A 29.88 1012 N/A 0 0
1:54 pm 13:54 undefined 91 32.8 72 22.2 54 54 undefined N/A 29.85 1011 N/A 0 0
2:54 pm 14:54 undefined 92 33.3 71 21.7 51 51 undefined N/A 29.83 1010 N/A 0 0
3:54 pm 15:54 undefined 91 32.8 71 21.7 52 52 undefined N/A 29.83 1010 N/A 0 0
4:54 pm 16:54 undefined 78 25.6 74 23.3 87 87 undefined N/A 29.83 1010 N/A 0.96 24.384
5:54 pm 17:54 undefined 79 26.1 75 23.9 88 88 undefined N/A 29.88 1012 N/A 0 0
6:54 pm 18:54 undefined 79 26.1 74 23.3 85 85 undefined N/A 29.88 1012 N/A 0 0
7:54 pm 19:54 undefined 88 31.1 67 19.4 50 50 undefined N/A 29.94 1014 N/A 0 0
8:54 pm 20:54 undefined 78 25.6 73 22.8 85 85 undefined N/A 29.91 1013 N/A 0 0
9:54 pm 21:54 undefined 79 26.1 73 22.8 82 82 undefined N/A 29.94 1014 N/A 0 0
10:54 pm 22:54 undefined 78 25.6 73 22.8 85 85 undefined N/A 29.94 1014 N/A 0 0
11:54 pm 23:54 undefined 78 25.6 72 22.2 82 82 undefined N/A 29.94 1014 N/A 0 0

Powered by AerisWeather